Location: Natural Bridges National Monument
(37.6093°N, 109.9767°W)
Time: 18:53:29
(UTC-06:00)

USA 32 - Visible Passes

Search period start: 26 March 2017 00:00
Search period end: 05 April 2017 00:00
Orbit: 776 x 784 km, 85.0° (Epoch: 15 March)

Date Brightness Start Highest point End Pass type
(mag) Time Alt. Az. Time Alt. Az. Time Alt. Az.
26 Mar 6.5 06:20:12 10° SE 06:24:28 26° E 06:28:44 10° NNE visible
26 Mar 7.9 20:16:27 10° WNW 20:17:24 10° WNW 20:18:20 10° W visible
27 Mar 7.2 05:49:15 10° ESE 05:51:58 14° E 05:54:42 10° NE visible
29 Mar 5.5 06:21:58 10° SSE 06:26:50 42° E 06:31:44 10° NNE visible
30 Mar 6.6 05:50:13 10° SE 05:54:16 23° E 05:58:19 10° NNE visible
31 Mar 7.2 05:19:37 10° ESE 05:21:47 13° E 05:23:57 10° NE visible
01 Apr 4.5 06:24:07 10° S 06:29:17 69° E 06:34:29 10° N visible
02 Apr 5.7 05:51:52 10° SSE 05:56:37 37° E 06:01:24 10° NNE visible
03 Apr 6.6 05:20:16 10° SE 05:24:03 21° E 05:27:51 10° NE visible
04 Apr 7.2 04:50:15 10° E 04:51:36 11° E 04:52:58 10° ENE visible
04 Apr 4.0 06:26:36 10° S 06:31:48 73° W 06:37:02 10° N visible
